Location: *
(55.6049°S, 142.1985°W)
Time: 04:03:41
(UTC+00:00)

USA 229 DEB - Pass Details

Date: 12 May 2021
Orbit: 956 x 1256 km, 63.4° (Epoch: 17 June)

Event Time Altitude Azimuth Distance (km) Brightness Sun altitude
Exits shadow 13:59:33 50° 225° (SW) 1,339 3.9 -27.0°
Maximum altitude 14:01:32 84° 144° (SE) 1,069 3.6 -26.8°
Drops below altitude 10° 14:08:06 10° 54° (NE) 2,780 6.5 -25.8°
Sets 14:10:36 0° 53° (NE) 3,697 7.2 -25.5°
